Sidney, NE

7:15 AM MST on January 22, 2017 (GMT -0700)
Sidney Municipal

Weather History for KSNY - February, 2013

Change the Weather History Date:

Wednesday, February 6, 2013

  Actual Average Record
Temperature  
Mean Temperature 47 °F 30 °F  
Max Temperature 60 °F 43 °F 74 °F (2015)
Min Temperature 34 °F 17 °F -24 °F (1989)
Degree Days  
Heating Degree Days 18 35  
Month to date heating degree days 165 210  
Since 1 July heating degree days 3868 3867  
Cooling Degree Days 0 0  
Month to date cooling degree days 0 0  
Year to date cooling degree days 0 0  
Moisture  
Dew Point 21 °F    
Average Humidity 42    
Maximum Humidity 64    
Minimum Humidity 19    
Precipitation  
Precipitation 0.00 in 0.00 in 0.17 in (1986)
Month to date precipitation 0.01 0.05  
Year to date precipitation 0.18 0.25  
Sea Level Pressure  
Sea Level Pressure 29.85 in    
Wind  
Wind Speed 12 mph (NW)    
Max Wind Speed 26 mph    
Max Gust Speed 31 mph    
Visibility 10 miles    
Events      
T = Trace of Precipitation, MM = Missing Value Source: NWS Daily Summary

Daily Weather History Graph

Daily Weather History Graph

Search for Another Location

Airport or City:

Trip Planner

Search our weather history database for the weather conditions in past years. The results will help you decide how hot, cold, wet, or windy it might be!

Date:

Astronomy

Feb. 06, 2013 Rise Set
Actual Time 6:57 AM MST 5:15 PM MST
Civil Twilight 6:28 AM MST 5:44 PM MST
Nautical Twilight 5:55 AM MST 6:16 PM MST
Astronomical Twilight 5:23 AM MST 6:49 PM MST
Moon 3:44 AM MST (2/6) 1:35 PM MST (2/6)
Length of Visible Light 11h 15m
Length of Day
10h 18m
Waning Crescent, 16% of the Moon is Illuminated
Feb 6
Waning Crescent
Feb 10
New
Feb 17
First Quarter
Feb 25
Full
Mar 4
Last Quarter

Hourly Weather History & Observations

Time (MST) Temp. Windchill Dew Point Humidity Pressure Visibility Wind Dir Wind Speed Gust Speed Precip Events Conditions
12:53 AM 43.0 °F 36.0 °F 19.0 °F 38% 29.79 in 10.0 mi SSW 13.8 mph - N/A   Overcast
1:53 AM 42.1 °F 36.1 °F 19.0 °F 40% 29.79 in 10.0 mi SSW 10.4 mph - N/A   Scattered Clouds
2:53 AM 39.9 °F 33.9 °F 19.9 °F 45% 29.77 in 10.0 mi SW 9.2 mph - N/A   Mostly Cloudy
3:53 AM 37.0 °F 33.3 °F 19.9 °F 50% 29.78 in 10.0 mi South 4.6 mph - N/A   Overcast
4:53 AM 37.0 °F 32.4 °F 21.9 °F 54% 29.81 in 10.0 mi SW 5.8 mph - N/A   Overcast
5:53 AM 39.0 °F - 21.0 °F 49% 29.80 in 10.0 mi Calm Calm - N/A   Overcast
6:53 AM 37.0 °F 31.6 °F 21.9 °F 54% 29.82 in 10.0 mi WSW 6.9 mph - N/A   Mostly Cloudy
7:53 AM 48.9 °F - 24.1 °F 38% 29.78 in 10.0 mi NW 5.8 mph - N/A   Partly Cloudy
8:53 AM 50.0 °F - 25.0 °F 38% 29.79 in 10.0 mi NW 10.4 mph - N/A   Overcast
9:53 AM 60.1 °F - 21.0 °F 22% 29.75 in 10.0 mi NW 17.3 mph 29.9 mph N/A   Partly Cloudy
10:53 AM 57.0 °F - 21.0 °F 25% 29.78 in 10.0 mi NNW 23.0 mph - N/A   Clear
11:53 AM 55.9 °F - 19.9 °F 25% 29.78 in 10.0 mi NW 21.9 mph 31.1 mph N/A   Partly Cloudy
12:53 PM 55.9 °F - 15.1 °F 20% 29.75 in 10.0 mi NW 26.5 mph 31.1 mph N/A   Partly Cloudy
1:53 PM 57.9 °F - 16.0 °F 19% 29.75 in 10.0 mi NNW 16.1 mph 26.5 mph N/A   Partly Cloudy
2:53 PM 53.1 °F - 17.1 °F 24% 29.78 in 10.0 mi NNW 17.3 mph - N/A   Mostly Cloudy
3:53 PM 51.1 °F - 16.0 °F 25% 29.82 in 10.0 mi North 13.8 mph - N/A   Partly Cloudy
4:53 PM 46.9 °F - 16.0 °F 29% 29.86 in 10.0 mi NNW 10.4 mph - N/A   Overcast
5:53 PM 42.1 °F 35.2 °F 23.0 °F 47% 29.91 in 10.0 mi NNE 12.7 mph - N/A   Clear
6:53 PM 39.0 °F 31.0 °F 25.0 °F 57% 29.96 in 10.0 mi North 13.8 mph - N/A   Clear
7:53 PM 37.9 °F 30.0 °F 25.0 °F 60% 29.95 in 10.0 mi North 12.7 mph - N/A   Scattered Clouds
8:53 PM 36.0 °F 29.6 °F 25.0 °F 64% 29.99 in 10.0 mi North 8.1 mph - N/A   Mostly Cloudy
9:53 PM 35.1 °F 27.9 °F 25.0 °F 67% 29.99 in 10.0 mi NNW 9.2 mph - N/A   Mostly Cloudy
10:53 PM 36.0 °F 28.0 °F 25.0 °F 64% 30.03 in 10.0 mi NW 11.5 mph - N/A   Overcast
11:53 PM 35.1 °F 27.4 °F 25.0 °F 67% 30.06 in 10.0 mi NNW 10.4 mph - N/A   Overcast